カタログに戻る

STARLINK-4123

運用中通信VLEO
NORAD 53539·PAYLOAD·🇺🇸 United States

打ち上げ Aug 19, 2022 から Cape Canaveral Space Force Station

Loading…

次のパス (今後24時間)

TLE

最新Source: CelesTrak SupGP

元期: Sep 15, 2026, 02:55 UTC

1 53539C 22101N   26258.12201389 -.00664440  00000+0 -19159-1 0  2589
2 53539  53.1596 294.5176 0001401  87.8318  89.2112 15.35487396    16

AllMySatでSTARLINK-4123をリアルタイム追跡

Download on the App Store